sat.trackr.live / text

‹ back to catalog

STARLINK-5874

NORAD 56353 · 2023-058AN

PAYLOAD ACTIVE UNKNOWN

§ Identity

Operator
Country
US
Launch date
2023-04-27
Launch site
AFWTR
Launch vehicle
Mass (kg)
RCS (m²)

Purposes: comms

External: N2YO · Heavens-Above · Gunter

§ Orbital elements

Epoch: 2026-05-24T23:57:31.877568Z

Period
95.64 min
Inclination
97.4469°
Eccentricity
0.0004183
Mean motion
15.05652802 rev/d
Perigee alt
546.6 km
Apogee alt
552.4 km
Semi-major
6,927.6 km
B*
-6.7423e-5
RAAN
144.9271°
Arg perigee
110.4075°
Mean anomaly
249.7602°
Rev number
16,960

§ Raw data

STARLINK-58741 56353U 23058AN  26144.99828562 -.00001032  00000+0 -67423-4 0  99992 56353  97.4469 144.9271 0004183 110.4075 249.7602 15.05652802169601

JSON: /api/v1/satellites/56353 · /tle

For live sub-satellite position, see the globe view (requires WebGL).

§ Visibility from observer

Set your observer location to see the next 7 days of passes ≥ 10°. The values pass through the URL so the page stays shareable.

No JS? Fill the form by hand. The geolocation button needs JavaScript.